Wetbulb
58.37 58.37 58.21 57.97 58.40 58.07 57.72 57.42 57.06 57.34 57.82 58.24 58.56 58.69 58.56 58.52 58.47 58.40 58.63 58.98 57.73 57.21 57.83 58.08 57.94 56.42 50.28 44.26 44.87 52.31 56.85 57.64 56.85 55.05 51.76 49.59 48.07 44.93 42.51 43.30 41.55 39.82 40.43 41.47 41.93 42.14 42.48
57.92 57.75 57.36 57.38 57.36 57.66 57.80 57.39 56.88 56.80 57.44 57.87 58.13 58.15 58.03 58.02 58.06 58.11 58.11 58.59 57.84 57.22 57.86 58.26 57.40 53.90 46.13 39.54 50.66 52.43 53.43 55.45 54.22 52.71 50.10 49.93 45.97 45.02 43.82 40.81 40.38 41.01 40.59 40.71 41.42 41.09 41.90
57.01 57.10 56.71 56.85 57.05 57.21 57.29 57.20 56.59 56.43 56.51 57.50 57.62 57.53 57.46 57.42 57.61 57.80 57.71 58.19 58.86 58.48 57.74 57.99 56.76 49.14 44.95 44.25 52.35 51.56 53.02 53.59 53.55 53.02 48.89 50.16 49.05 44.88 43.51 39.62 41.57 40.71 38.50 40.31 39.87 40.82 41.28
56.60 56.27 56.85 56.82 56.86 56.91 57.37 57.31 56.77 56.28 56.23 56.88 57.08 56.98 56.95 56.87 57.12 57.27 57.43 57.51 58.56 57.93 57.64 57.61 54.71 48.45 43.32 52.89 54.90 52.63 54.14 52.45 54.03 53.80 51.65 51.16 49.95 45.66 42.81 41.94 39.58 37.90 37.57 35.21 39.67 40.90 41.36
56.37 56.55 56.32 56.55 56.54 56.93 57.34 56.97 57.11 56.21 55.96 56.43 56.48 56.52 56.48 56.70 56.78 57.18 57.35 57.33 57.41 57.22 58.21 56.46 48.96 47.08 41.89 53.57 50.36 52.44 52.62 48.76 50.82 51.66 52.28 51.80 47.87 41.61 41.16 36.62 34.57 33.94 31.46 33.71 36.97 39.91 40.65
56.05 55.85 55.99 56.14 56.74 56.67 56.84 56.75 56.48 55.92 55.95 56.13 56.03 55.91 55.97 56.41 56.56 56.90 55.93 55.50 55.19 52.45 49.49 49.42 49.27 43.94 46.71 44.90 49.58 50.18 51.40 51.21 49.10 49.93 48.89 44.63 40.16 36.23 34.78 35.35 30.03 31.94 30.93 32.33 33.83 37.56 39.09
55.80 55.32 55.76 55.62 56.03 56.53 56.64 56.95 56.76 56.05 56.12 55.71 55.61 55.47 55.69 55.98 56.69 56.04 48.89 44.97 41.96 40.57 43.25 39.39 41.88 42.46 45.02 48.85 51.52 49.40 51.98 50.94 50.18 46.84 39.92 39.43 33.12 31.08 32.84 34.09 33.95 33.54 32.99 32.44 34.45 37.44 37.24
54.91 55.04 55.01 55.65 56.09 56.56 56.68 56.44 56.53 56.27 55.94 55.43 55.15 55.26 55.44 55.72 56.03 53.84 45.90 40.98 41.13 43.02 36.06 42.01 43.08 43.65 46.39 49.33 44.40 47.19 51.38 44.97 43.84 38.59 38.07 35.69 31.53 35.23 36.64 35.78 34.19 33.50 32.78 31.94 34.56 36.39 36.39
54.65 54.98 55.29 55.41 55.68 56.37 56.48 56.52 56.11 55.90 55.58 55.41 54.64 54.77 55.05 55.49 54.48 47.70 43.43 42.72 46.74 44.96 35.50 39.14 41.95 42.12 43.02 47.24 43.94 44.80 47.41 44.06 39.87 36.93 36.21 33.75 34.74 37.54 35.65 33.78 33.46 31.48 31.25 30.70 32.39 34.71 33.36
54.33 54.71 54.97 55.37 55.85 56.05 56.19 56.34 56.01 55.93 54.92 55.12 54.63 54.41 55.08 53.43 46.51 43.68 42.13 45.80 46.69 44.71 28.91 33.37 38.30 42.34 43.31 44.01 39.94 47.18 47.42 44.14 40.40 36.66 36.00 34.86 37.14 35.49 34.36 33.16 32.91 30.84 34.37 33.14 32.19 31.76 29.60
54.61 54.72 54.94 55.32 55.64 55.82 56.13 56.29 56.42 55.66 54.57 55.00 54.68 54.00 54.18 50.70 42.80 41.62 44.45 46.61 44.76 39.91 16.83 35.35 38.10 46.15 43.00 40.35 41.09 41.91 46.34 43.53 37.93 36.51 36.55 33.67 34.64 33.53 33.22 33.40 34.82 32.99 35.45 33.02 31.67 29.26 28.54
54.74 54.94 55.04 55.32 55.48 55.70 56.06 56.22 56.55 56.39 55.71 54.53 54.27 53.78 52.38 47.52 43.91 44.06 46.08 43.43 40.32 27.16 15.90 31.42 37.22 37.27 36.94 38.04 38.58 41.36 41.21 42.97 41.90 36.74 35.77 35.09 38.64 36.94 35.20 35.80 35.14 35.53 32.42 30.94 29.06 28.48 23.05
54.65 54.88 55.06 55.36 55.42 55.64 55.96 56.46 56.51 56.24 55.72 54.00 53.48 52.96 49.03 47.38 41.15 45.61 43.08 39.79 27.87 19.57 30.79 31.60 32.74 35.96 33.68 33.91 35.44 36.04 35.02 33.52 32.37 27.18 26.15 31.15 32.23 37.10 38.23 33.96 35.79 32.95 28.82 21.90 22.84 22.09 23.60
54.35 54.67 55.05 55.40 55.55 55.57 55.89 56.25 56.27 56.02 55.57 54.70 52.32 50.39 47.79 46.94 45.27 43.72 40.58 33.22 20.94 27.04 29.19 35.02 34.58 33.63 31.54 33.65 33.44 34.15 32.06 30.06 34.86 31.74 25.70 22.27 22.24 33.60 37.54 34.39 31.96 32.38 29.82 22.54 19.18 19.94 23.13
54.36 54.75 55.00 55.19 55.45 55.43 55.51 56.07 55.91 55.57 55.05 54.28 50.94 44.19 42.26 43.90 46.29 41.47 36.36 24.42 22.05 28.31 33.88 33.90 33.07 29.36 29.87 32.91 32.20 31.00 30.11 30.71 32.96 33.59 27.33 25.07 27.39 35.40 37.08 36.84 34.19 32.32 28.35 30.88 23.44 20.86 22.15
53.73 55.08 55.29 54.91 55.15 55.21 55.33 55.74 55.75 55.40 54.83 51.28 42.63 40.71 42.36 45.19 44.38 38.95 32.49 29.02 31.12 34.44 36.68 34.74 28.84 30.04 27.30 30.08 29.63 29.41 28.74 33.01 33.56 35.09 34.30 29.88 25.40 32.42 35.64 35.98 35.92 32.90 32.87 26.59 25.86 21.00 20.22
53.70 54.27 55.18 54.66 54.89 55.16 55.35 55.44 55.57 55.33 54.75 51.00 40.70 37.45 41.68 44.98 41.39 35.91 27.19 27.59 32.89 37.22 37.62 34.42 31.47 29.95 29.18 28.47 29.80 29.13 28.35 32.92 34.95 34.78 34.10 31.85 28.02 28.93 31.67 29.97 30.29 31.78 29.81 29.19 27.74 25.75 22.68
53.77 54.65 55.20 55.19 54.87 54.79 54.97 55.15 55.23 55.11 54.02 45.36 37.94 34.06 42.69 41.29 34.82 30.92 30.34 32.89 39.52 35.78 37.07 35.66 34.55 33.06 30.39 30.32 28.87 29.44 29.95 32.41 37.03 35.61 30.45 32.76 28.20 23.22 27.13 32.49 34.53 31.86 29.74 28.97 25.11 23.28 22.89
54.34 54.54 54.91 54.75 54.39 54.39 54.58 54.68 54.83 54.88 52.37 41.50 37.39 36.94 42.01 39.38 29.11 29.41 32.30 34.81 36.13 35.13 34.63 34.44 33.03 33.92 33.09 29.89 26.95 30.54 31.58 36.84 37.52 35.66 32.24 32.13 27.45 21.22 25.20 28.23 31.59 31.18 32.03 29.96 28.05 28.39 24.98
54.89 54.65 54.58 54.42 54.23 54.19 54.28 54.24 54.35 54.48 52.74 40.36 36.59 33.32 37.17 35.66 32.65 31.94 30.19 31.26 31.46 36.36 35.08 35.49 33.61 33.71 30.86 28.83 29.72 28.06 29.40 35.53 37.64 36.62 40.41 34.90 28.05 26.18 23.71 25.59 29.13 28.88 30.66 30.68 29.66 25.03 24.59
55.09 54.85 54.64 54.27 54.28 54.28 54.02 53.93 54.03 53.86 51.15 41.26 35.74 32.25 33.18 29.02 32.54 30.62 31.10 31.84 31.48 31.03 34.85 34.79 31.92 32.43 30.29 26.62 26.63 26.80 31.14 32.10 35.26 38.40 34.15 29.82 24.42 23.45 26.38 27.80 29.07 29.36 30.02 30.18 28.94 28.20 27.18
55.32 55.17 54.84 54.48 54.21 54.06 53.64 53.51 53.73 53.37 49.93 38.86 35.26 34.39 33.97 32.34 33.35 30.35 32.47 30.29 31.39 32.47 32.79 31.96 30.86 32.66 31.73 28.24 28.36 26.88 29.71 29.83 28.98 32.41 30.62 31.24 25.67 26.47 23.83 27.48 27.10 26.23 27.50 27.38 29.26 29.84 29.17
55.43 55.17 54.93 54.48 54.20 53.79 53.16 52.94 53.47 52.74 47.68 38.73 36.58 36.65 36.98 33.52 31.89 30.00 31.01 31.15 32.55 33.34 34.44 34.92 33.61 31.79 30.47 32.24 33.69 33.15 33.12 32.58 31.92 31.85 30.56 29.59 26.84 25.07 22.45 26.05 26.07 24.58 26.36 27.13 28.22 28.87 29.74
55.52 55.28 55.09 54.61 53.96 53.59 52.97 52.71 53.31 52.69 46.82 40.85 37.95 37.88 35.45 30.63 32.39 33.24 32.56 32.80 33.46 34.19 32.37 34.78 34.35 31.78 33.82 36.70 35.54 33.28 31.98 32.27 31.95 31.03 32.56 28.83 27.32 26.84 22.55 24.02 17.16 28.52 29.34 30.18 29.52 29.94 30.30
56.12 55.92 55.67 55.08 54.15 53.60 53.39 52.68 53.04 53.09 49.54 42.18 38.72 38.41 35.98 30.79 33.19 32.55 32.52 32.37 32.19 31.95 31.69 33.23 34.92 35.34 35.94 32.92 30.00 27.68 26.19 26.65 27.77 28.85 28.87 30.25 28.23 24.50 21.13 18.99 25.32 25.68 28.14 28.41 27.42 27.91 30.78
52.26 52.80 54.36 55.42 54.67 53.77 53.09 52.86 52.75 53.10 50.09 43.22 40.02 39.26 37.82 33.97 30.77 33.78 33.14 31.32 31.20 29.31 30.45 31.69 34.96 36.14 34.27 30.94 28.69 25.26 24.28 24.12 23.24 24.94 29.69 29.95 28.78 25.33 23.40 19.55 20.99 26.74 29.67 31.44 30.85 25.25 32.30
50.28 50.42 51.28 51.86 53.09 54.50 53.83 53.00 52.66 52.66 51.96 45.06 41.80 39.93 39.29 34.81 35.30 33.38 32.57 32.54 33.11 30.70 31.39 30.64 31.90 32.47 33.25 28.66 27.49 25.36 24.29 25.14 22.99 22.53 23.29 25.47 25.74 24.18 23.30 21.70 24.97 30.20 32.02 32.07 24.22 27.24 33.20
48.57 49.00 49.41 49.84 50.55 51.34 53.19 53.79 52.97 52.58 52.43 47.54 42.59 41.39 41.49 35.58 36.54 37.91 37.62 34.59 33.65 33.31 32.21 32.83 33.11 32.21 30.03 28.57 27.70 26.44 24.27 25.45 22.24 24.09 24.44 24.54 23.01 22.58 23.69 21.81 20.42 32.52 31.05 28.57 32.50 32.06 33.03
47.93 48.03 48.14 48.37 48.82 49.55 50.56 52.15 53.64 53.09 52.70 49.27 43.02 43.33 43.40 40.04 38.22 40.59 41.09 39.51 38.73 38.12 35.78 32.65 32.97 32.00 33.17 28.94 27.76 27.76 27.36 23.46 22.91 22.87 23.53 23.62 27.37 25.36 26.59 26.74 32.47 32.10 31.98 33.36 34.39 33.82 33.86
MSLP
1021.93 1021.73 1021.51 1021.24 1021.04 1020.81 1020.45 1020.11 1019.87 1019.50 1019.18 1018.78 1018.39 1018.12 1017.78 1017.41 1017.05 1016.67 1016.36 1015.96 1015.62 1015.39 1015.14 1015.09 1014.91 1014.69 1014.66 1015.61 1016.58 1016.13 1015.88 1015.60 1015.35 1015.35 1015.69 1015.92 1016.25 1016.55 1016.42 1016.36 1016.31 1016.52 1016.40 1016.26 1015.78 1015.71 1015.93
1022.24 1022.01 1021.75 1021.47 1021.15 1020.87 1020.53 1020.16 1019.82 1019.48 1019.07 1018.71 1018.29 1018.08 1017.77 1017.37 1016.96 1016.49 1016.32 1015.98 1015.46 1015.32 1015.33 1015.08 1014.74 1014.73 1015.30 1016.54 1016.58 1016.25 1015.95 1015.75 1015.66 1015.70 1015.91 1016.23 1016.72 1016.72 1016.48 1016.28 1016.30 1016.36 1016.44 1016.42 1016.06 1016.13 1016.23
1022.53 1022.27 1022.01 1021.67 1021.29 1020.91 1020.50 1020.13 1019.73 1019.32 1019.05 1018.62 1018.18 1017.89 1017.66 1017.34 1016.85 1016.40 1016.12 1015.90 1015.56 1015.31 1015.39 1015.09 1014.86 1015.15 1016.14 1017.09 1016.51 1016.28 1016.00 1016.05 1015.94 1015.79 1015.75 1016.41 1016.77 1016.77 1016.34 1016.26 1016.39 1016.47 1016.72 1016.50 1016.61 1016.42 1016.48
1022.71 1022.44 1022.14 1021.76 1021.40 1020.97 1020.48 1020.07 1019.60 1019.19 1018.89 1018.58 1018.20 1017.90 1017.44 1017.17 1016.75 1016.18 1015.94 1015.73 1015.41 1015.22 1015.18 1015.16 1015.12 1015.43 1016.69 1016.69 1016.31 1016.19 1016.06 1016.13 1016.16 1016.26 1016.47 1016.58 1016.75 1016.78 1016.49 1016.34 1016.55 1016.79 1016.92 1017.04 1017.07 1016.53 1016.46
1022.97 1022.70 1022.35 1021.90 1021.50 1021.07 1020.52 1019.97 1019.54 1019.13 1018.75 1018.50 1018.21 1017.89 1017.57 1017.00 1016.57 1016.03 1015.54 1015.51 1015.34 1015.07 1015.13 1015.19 1015.40 1015.84 1017.67 1017.10 1016.30 1016.12 1016.02 1016.19 1016.17 1016.39 1016.57 1016.69 1016.75 1016.96 1016.66 1016.81 1017.49 1017.70 1017.80 1017.45 1017.28 1016.99 1016.61
1023.12 1022.95 1022.52 1022.09 1021.66 1021.17 1020.68 1020.13 1019.57 1019.17 1018.77 1018.43 1018.18 1017.80 1017.63 1017.17 1016.55 1015.98 1015.42 1015.36 1015.40 1015.23 1015.49 1015.55 1015.94 1016.68 1018.06 1017.61 1016.71 1016.08 1016.18 1016.15 1016.17 1016.37 1016.45 1016.61 1016.81 1017.21 1017.48 1017.47 1017.95 1018.18 1018.35 1018.00 1017.60 1017.73 1017.10
1023.29 1023.06 1022.79 1022.28 1021.81 1021.32 1020.79 1020.23 1019.71 1019.23 1018.79 1018.39 1018.06 1017.77 1017.58 1017.16 1016.69 1016.10 1015.47 1015.64 1016.44 1016.46 1016.35 1017.04 1017.05 1017.02 1017.56 1017.28 1016.67 1016.27 1016.09 1016.17 1016.41 1016.65 1017.30 1017.15 1017.67 1017.97 1018.13 1017.72 1017.87 1017.96 1018.11 1018.28 1018.41 1018.18 1017.90
1023.43 1023.07 1022.78 1022.38 1021.95 1021.44 1020.92 1020.31 1019.79 1019.33 1018.82 1018.39 1017.98 1017.62 1017.35 1017.11 1016.71 1016.35 1016.44 1017.73 1018.33 1018.60 1017.86 1017.02 1016.91 1016.73 1016.85 1016.79 1016.99 1016.79 1016.66 1016.90 1017.48 1017.44 1017.23 1017.67 1018.33 1018.49 1018.26 1017.89 1018.10 1018.32 1018.41 1018.99 1019.04 1018.64 1018.33
1023.55 1023.23 1022.86 1022.47 1022.00 1021.52 1020.98 1020.49 1019.94 1019.41 1018.95 1018.44 1017.98 1017.54 1017.15 1016.90 1016.71 1016.85 1017.70 1018.34 1018.46 1018.66 1018.27 1017.36 1016.91 1016.66 1016.62 1016.63 1017.15 1016.83 1016.79 1016.52 1017.00 1017.49 1017.74 1017.98 1018.78 1018.39 1018.41 1018.42 1018.59 1019.19 1019.11 1019.27 1019.16 1019.48 1019.86
1023.71 1023.33 1022.95 1022.55 1022.08 1021.54 1020.98 1020.50 1019.99 1019.46 1019.04 1018.53 1018.05 1017.55 1017.12 1016.66 1017.09 1017.85 1018.23 1018.27 1018.32 1018.61 1018.74 1018.57 1017.17 1016.51 1016.41 1016.50 1016.87 1016.66 1016.63 1016.82 1016.81 1017.57 1017.96 1018.57 1018.76 1018.61 1018.74 1019.06 1019.16 1019.46 1019.57 1019.55 1019.68 1020.15 1021.04
1023.83 1023.46 1023.05 1022.57 1022.11 1021.60 1021.00 1020.44 1019.92 1019.43 1018.98 1018.48 1018.03 1017.59 1017.21 1016.79 1017.67 1018.22 1018.78 1018.44 1018.34 1018.47 1019.36 1018.91 1017.47 1016.28 1016.53 1016.95 1017.24 1016.86 1016.82 1016.97 1017.52 1017.90 1018.17 1019.61 1019.28 1019.13 1019.25 1019.73 1019.36 1019.94 1019.87 1020.13 1020.44 1021.14 1021.76
1023.99 1023.55 1023.17 1022.69 1022.18 1021.65 1021.08 1020.51 1019.90 1019.33 1018.84 1018.30 1017.95 1017.64 1017.23 1017.58 1018.13 1018.64 1018.50 1018.30 1018.60 1019.35 1020.32 1019.38 1018.35 1017.67 1017.52 1017.54 1017.71 1017.39 1017.29 1017.19 1017.68 1018.23 1018.82 1019.81 1019.65 1019.78 1019.90 1019.91 1019.60 1019.95 1020.31 1020.75 1021.26 1021.83 1022.86
1024.04 1023.65 1023.23 1022.77 1022.31 1021.77 1021.18 1020.57 1019.96 1019.33 1018.79 1018.34 1017.97 1017.76 1017.46 1017.98 1018.60 1018.44 1018.43 1018.70 1019.81 1020.35 1021.26 1020.28 1019.27 1018.70 1018.73 1018.87 1018.79 1018.70 1019.08 1019.13 1019.43 1019.60 1020.17 1020.32 1020.46 1020.36 1020.15 1020.07 1020.07 1020.28 1021.07 1022.17 1022.86 1023.21 1023.72
1023.94 1023.68 1023.29 1022.89 1022.39 1021.90 1021.32 1020.64 1019.94 1019.32 1018.80 1018.36 1018.08 1017.83 1018.26 1018.51 1018.50 1018.26 1018.52 1019.39 1020.73 1021.63 1021.24 1020.43 1019.88 1019.34 1019.28 1019.26 1019.59 1019.89 1020.04 1020.63 1020.42 1020.60 1021.35 1021.46 1021.53 1021.26 1020.91 1020.98 1020.71 1020.99 1021.38 1022.24 1023.44 1024.43 1024.17
1023.82 1023.60 1023.33 1022.99 1022.50 1021.99 1021.43 1020.72 1019.98 1019.28 1018.67 1018.19 1018.03 1018.49 1018.68 1018.65 1018.51 1018.37 1018.97 1020.98 1022.21 1022.02 1021.40 1020.82 1020.13 1020.01 1019.88 1019.61 1019.57 1020.13 1021.17 1021.59 1021.37 1021.10 1021.26 1021.57 1021.95 1021.67 1021.42 1021.18 1021.28 1021.31 1021.73 1022.32 1023.48 1025.15 1024.51
1023.68 1023.54 1023.24 1022.97 1022.59 1022.09 1021.49 1020.83 1020.07 1019.29 1018.63 1018.17 1018.65 1018.97 1019.20 1018.83 1018.65 1018.87 1019.70 1022.12 1022.33 1021.86 1021.37 1021.02 1020.80 1020.68 1020.68 1020.39 1020.35 1020.34 1021.10 1021.43 1021.51 1021.30 1021.08 1021.51 1021.99 1022.14 1021.71 1021.44 1021.42 1021.49 1022.24 1022.63 1023.01 1024.27 1024.38
1023.57 1023.44 1023.19 1022.91 1022.64 1022.21 1021.58 1020.92 1020.16 1019.34 1018.69 1018.29 1018.82 1019.31 1019.18 1018.92 1018.92 1019.56 1021.79 1022.37 1021.98 1021.49 1021.27 1021.25 1021.11 1021.04 1021.06 1021.03 1021.06 1021.30 1021.49 1021.54 1021.40 1021.14 1020.97 1021.22 1021.53 1022.51 1022.09 1022.15 1022.17 1022.24 1022.33 1022.97 1023.43 1023.92 1023.96
1023.47 1023.28 1023.13 1022.83 1022.62 1022.32 1021.69 1020.95 1020.27 1019.54 1018.66 1018.44 1019.21 1019.93 1019.29 1019.08 1019.71 1021.32 1022.11 1021.63 1021.25 1021.19 1021.02 1020.89 1020.76 1020.91 1021.01 1021.11 1021.36 1021.52 1021.77 1021.90 1021.75 1021.52 1021.38 1021.48 1021.98 1022.77 1022.70 1022.52 1022.44 1022.47 1022.74 1023.13 1023.81 1024.49 1024.47
1023.22 1023.09 1022.95 1022.76 1022.57 1022.33 1021.79 1021.04 1020.37 1019.80 1019.37 1019.63 1020.25 1020.32 1019.43 1019.26 1020.86 1022.15 1021.94 1021.58 1021.24 1021.03 1020.94 1020.85 1021.00 1021.00 1021.02 1021.24 1021.47 1021.57 1021.74 1021.89 1021.95 1022.02 1022.04 1021.84 1022.16 1022.85 1023.07 1023.12 1022.73 1022.71 1022.93 1023.37 1023.85 1024.13 1024.20
1023.03 1022.99 1022.82 1022.66 1022.53 1022.30 1021.95 1021.26 1020.54 1019.87 1019.52 1019.88 1020.67 1021.07 1020.62 1020.85 1022.12 1021.88 1021.77 1021.57 1021.25 1021.02 1020.94 1020.88 1020.93 1020.98 1021.13 1021.34 1021.53 1021.72 1021.79 1021.90 1021.97 1022.04 1022.07 1022.24 1022.74 1022.48 1022.50 1022.34 1022.48 1023.00 1023.13 1023.37 1023.57 1024.19 1023.73
1022.78 1022.78 1022.67 1022.55 1022.39 1022.23 1021.97 1021.50 1020.80 1019.99 1019.42 1019.99 1021.61 1022.74 1022.65 1022.69 1022.52 1022.13 1021.68 1021.29 1020.98 1020.89 1020.94 1020.95 1021.15 1021.21 1021.29 1021.47 1021.61 1021.86 1022.04 1022.07 1022.11 1022.15 1022.27 1022.68 1023.39 1023.52 1023.26 1023.21 1023.02 1022.69 1022.70 1023.03 1023.32 1022.98 1022.98
1022.47 1022.50 1022.51 1022.43 1022.36 1022.19 1021.98 1021.72 1021.13 1020.27 1019.59 1020.60 1022.34 1022.85 1023.12 1022.95 1022.64 1022.06 1021.77 1021.52 1021.27 1021.03 1021.02 1021.08 1021.17 1021.31 1021.42 1021.68 1021.78 1021.92 1022.15 1022.41 1022.45 1022.77 1023.01 1023.34 1023.74 1024.01 1023.82 1023.34 1023.26 1023.24 1022.99 1023.26 1023.23 1023.08 1022.64
1022.09 1022.18 1022.27 1022.24 1022.13 1022.09 1021.94 1021.80 1021.46 1020.82 1020.12 1021.28 1022.61 1022.65 1022.67 1023.19 1022.69 1022.24 1021.66 1021.26 1021.13 1021.19 1021.33 1021.28 1021.44 1021.67 1021.79 1021.82 1021.87 1022.15 1022.30 1022.51 1022.85 1023.23 1023.62 1023.81 1024.09 1024.43 1023.89 1023.41 1022.91 1022.48 1021.63 1021.97 1022.18 1022.21 1022.13
1021.70 1021.74 1021.90 1021.96 1021.92 1021.86 1021.85 1021.81 1021.66 1021.45 1021.35 1022.22 1022.88 1022.86 1022.93 1023.07 1022.88 1022.25 1021.69 1021.36 1021.14 1021.09 1021.28 1021.50 1021.67 1021.90 1022.21 1022.06 1022.22 1022.41 1022.70 1022.92 1023.28 1023.79 1023.90 1024.30 1024.50 1024.57 1024.57 1023.82 1022.67 1020.78 1020.55 1020.58 1020.81 1020.96 1021.17
1021.25 1021.41 1021.54 1021.62 1021.58 1021.53 1021.53 1021.75 1021.70 1021.70 1021.70 1022.22 1022.92 1023.17 1023.19 1022.99 1022.58 1022.10 1021.87 1021.75 1021.64 1021.56 1021.57 1021.49 1021.70 1022.04 1022.07 1022.19 1022.69 1022.90 1023.04 1023.33 1023.77 1024.24 1024.34 1024.62 1024.86 1025.05 1024.89 1024.11 1021.97 1020.83 1020.34 1020.22 1020.38 1020.63 1020.52
1021.49 1021.41 1021.41 1021.41 1021.36 1021.37 1021.30 1021.35 1021.64 1021.72 1021.84 1022.27 1022.80 1022.98 1023.12 1023.23 1022.67 1022.14 1022.05 1022.06 1022.19 1022.30 1022.33 1022.19 1022.29 1022.20 1022.27 1022.83 1023.22 1023.57 1023.67 1023.58 1024.09 1024.54 1024.64 1024.81 1024.98 1025.30 1025.36 1024.35 1022.39 1020.32 1019.93 1019.84 1020.08 1020.25 1020.23
1022.01 1021.75 1021.56 1021.46 1021.45 1021.28 1021.16 1021.09 1021.21 1021.37 1021.69 1022.26 1022.69 1022.74 1022.88 1023.18 1022.40 1022.04 1021.97 1022.10 1022.14 1022.52 1022.70 1022.66 1022.70 1022.88 1022.93 1023.49 1023.93 1024.13 1023.89 1023.68 1024.19 1024.65 1025.09 1025.26 1025.40 1025.37 1025.16 1024.22 1021.90 1020.00 1019.63 1019.84 1020.22 1020.34 1019.66
1022.32 1022.22 1021.88 1021.62 1021.59 1021.38 1021.15 1020.96 1020.94 1020.98 1021.26 1021.77 1022.46 1022.68 1022.80 1023.02 1022.36 1021.98 1021.61 1021.59 1021.90 1022.08 1022.40 1022.92 1023.27 1023.40 1023.79 1024.10 1024.31 1024.25 1024.30 1023.90 1024.05 1024.04 1024.33 1024.88 1025.13 1024.98 1024.81 1024.00 1021.88 1019.89 1019.81 1020.00 1019.91 1019.51 1019.64
1022.31 1022.13 1022.06 1021.89 1021.73 1021.49 1021.21 1020.84 1020.75 1020.73 1020.84 1021.24 1022.06 1022.24 1022.45 1022.94 1022.30 1021.67 1021.32 1021.01 1021.05 1021.14 1021.51 1022.33 1022.54 1022.57 1022.68 1023.58 1024.14 1024.20 1024.38 1024.58 1024.50 1024.43 1023.99 1023.83 1023.10 1023.17 1022.96 1021.48 1020.18 1019.87 1019.82 1019.66 1019.63 1019.78 1019.87
Wind_Speed
15 16 16 17 16 16 16 16 16 16 15 15 15 15 16 16 16 16 14 10 5 4 6 10 10 6 4 7 3 5 11 8 3 3 5 3 5 2 6 4 5 3 3 1 3 7 5
16 16 17 17 18 17 17 17 17 16 16 15 15 15 16 17 16 16 13 11 3 3 5 5 7 6 6 6 5 5 5 3 4 2 5 4 3 2 1 4 3 3 3 2 6 4 4
16 17 17 17 18 18 19 18 17 16 15 14 15 15 15 16 17 16 15 11 7 1 3 5 4 5 9 2 7 5 2 2 1 4 4 3 1 1 2 5 3 5 5 3 7 4 3
15 16 17 18 19 19 19 18 18 17 15 15 15 14 16 15 16 17 15 11 6 4 3 4 5 5 4 3 6 1 2 2 3 4 3 6 0 2 1 3 6 4 5 4 4 4 1
15 16 17 18 19 20 20 20 18 17 15 14 14 15 15 16 15 17 16 8 4 1 2 1 7 7 4 19 3 1 3 3 1 3 2 1 2 1 3 5 4 7 4 4 3 4 1
15 16 17 18 19 20 21 21 19 17 16 15 13 14 14 15 15 16 17 1 4 5 5 3 3 7 2 1 5 4 2 3 5 3 5 4 4 3 3 4 7 3 5 3 5 5 5
15 16 17 17 19 20 21 21 20 18 16 15 13 13 13 13 14 13 8 4 8 6 9 3 2 6 3 3 3 6 6 3 3 3 4 2 6 4 2 3 3 5 5 6 2 4 4
14 14 15 17 18 19 21 22 21 19 17 14 13 12 13 13 12 8 5 6 2 2 2 2 1 2 4 5 2 4 4 5 4 2 4 4 4 2 1 6 7 4 7 4 2 5 4
13 14 15 16 18 19 20 20 22 20 19 15 12 12 13 11 7 6 4 3 2 2 3 4 1 2 2 5 4 4 2 2 4 2 2 5 1 1 1 6 8 5 5 3 5 2 5
13 14 15 16 17 19 20 20 20 20 18 16 13 11 11 13 5 1 3 1 1 1 6 10 7 3 3 1 3 4 4 2 4 2 0 6 4 4 4 6 2 5 3 3 7 4 3
14 14 14 15 17 18 19 21 21 21 19 15 13 10 8 9 5 3 2 3 0 3 7 11 10 4 4 4 2 5 2 3 2 2 4 2 5 6 8 1 2 3 1 3 4 6 4
14 14 15 15 16 18 19 20 21 20 18 14 10 10 4 5 3 1 3 2 3 10 2 7 4 7 7 7 6 5 5 6 1 6 7 3 1 4 2 2 2 7 5 7 5 3 4
13 15 15 15 16 18 19 19 20 20 19 15 8 7 5 1 1 3 2 3 7 8 4 6 4 5 1 6 7 8 5 8 5 6 6 6 5 4 5 4 2 4 6 4 5 5 4
12 14 14 16 16 18 18 19 20 20 18 14 7 4 4 2 3 2 3 8 9 5 4 3 3 3 4 5 4 7 4 6 5 5 4 5 6 7 8 3 1 3 4 7 6 4 3
10 11 13 14 16 17 19 19 21 20 18 11 3 3 3 4 4 1 7 8 6 3 3 5 3 5 5 3 3 5 5 2 2 4 5 4 4 4 4 3 2 2 3 3 9 3 3
9 8 10 13 15 16 18 20 21 22 20 7 3 2 3 6 4 5 8 3 1 2 3 3 3 3 5 7 4 4 2 2 4 3 2 2 5 2 4 1 5 2 5 4 4 3 2
10 9 9 12 13 15 17 20 22 23 21 2 4 4 3 4 3 7 6 2 1 2 1 4 3 3 3 4 4 4 1 1 0 3 3 2 3 4 2 5 1 3 2 5 4 3 5
9 7 9 9 11 13 15 18 20 22 21 6 3 4 2 2 6 2 3 3 1 1 2 1 2 2 1 4 5 4 3 3 6 2 2 0 5 3 1 1 1 1 1 3 5 2 2
7 8 8 8 9 11 13 16 18 20 15 2 3 2 2 3 4 3 1 2 1 1 2 2 2 2 1 3 3 3 3 2 6 4 2 1 2 3 5 4 2 2 3 4 4 3 5
6 8 8 8 9 11 13 15 17 18 14 4 3 4 5 6 1 4 2 1 2 0 2 1 1 2 1 3 2 1 3 3 5 3 9 3 1 3 7 4 4 3 4 4 4 3 4
7 7 7 7 7 9 11 14 17 18 11 4 4 1 2 3 4 3 2 0 1 1 1 1 2 2 1 2 1 1 1 2 3 4 3 4 2 4 4 4 3 3 5 8 9 5 7
7 7 7 8 8 8 10 12 15 19 5 6 2 3 2 1 2 1 3 0 1 1 1 2 2 2 2 2 2 3 3 3 2 2 2 2 3 2 3 1 3 5 7 8 4 2 8
8 6 6 6 7 7 8 11 13 17 9 4 0 1 3 3 1 2 3 3 2 1 1 1 0 1 2 0 3 2 1 2 1 2 2 2 4 2 4 1 5 6 7 6 5 5 5
9 7 7 6 5 4 6 8 10 11 8 3 0 2 3 2 1 3 2 3 4 4 3 1 2 1 1 2 2 3 4 3 3 5 2 3 3 2 3 4 1 3 3 6 6 4 6
6 8 7 7 6 4 2 5 6 7 7 4 1 2 2 2 2 2 2 2 1 1 2 3 3 2 1 3 3 3 3 1 3 4 2 3 3 1 1 2 6 2 2 4 3 1 3
10 12 9 6 7 6 4 3 2 3 5 4 1 2 3 3 4 1 2 2 3 2 2 1 1 1 4 3 3 1 3 2 2 1 3 3 4 4 1 2 5 3 2 2 3 2 5
11 11 10 10 12 7 6 6 5 3 4 3 0 2 3 2 3 3 4 4 4 2 2 1 2 1 3 2 2 4 4 3 3 4 3 2 1 4 3 3 9 6 4 2 3 4 5
10 11 11 11 10 10 9 7 7 7 8 5 2 3 3 1 5 5 4 5 2 3 4 3 3 1 3 2 3 3 3 4 2 5 7 7 6 4 3 2 9 6 2 4 4 1 1
9 10 10 10 11 12 11 10 9 9 10 7 2 2 3 2 5 4 5 3 5 5 5 3 3 4 5 4 2 3 2 1 2 3 1 3 7 6 9 7 4 3 1 2 2 2 2
Wind_Direction
33 30 24 22 18 12 5 0 353 347 346 344 343 343 343 341 341 342 352 359 14 331 324 354 16 22 29 47 12 309 344 350 7 71 95 101 122 176 135 158 118 140 177 32 80 88 75
31 27 22 18 15 9 5 2 356 348 345 345 339 343 342 340 339 336 350 351 357 314 8 18 37 82 70 56 293 316 327 352 27 55 119 76 86 305 176 132 145 145 116 102 51 53 54
27 24 19 16 12 6 5 1 358 350 344 344 340 341 341 340 335 335 337 345 321 296 353 11 69 89 71 360 319 308 316 30 355 347 73 106 355 19 185 114 173 152 89 64 29 9 86
24 21 16 15 11 6 4 2 357 353 347 344 340 339 337 341 335 329 331 339 309 289 310 8 57 77 52 311 310 269 151 36 97 73 74 130 206 266 303 136 36 68 52 100 352 11 352
22 17 15 13 11 6 4 4 1 359 350 347 341 337 338 335 337 331 330 349 33 14 207 31 42 86 19 323 5 330 67 47 160 115 99 286 184 115 34 90 46 21 116 106 94 43 255
22 18 16 12 9 8 6 7 5 3 358 349 346 338 341 334 334 334 328 186 86 43 16 62 112 69 252 308 307 324 78 66 71 96 15 16 47 84 41 85 180 146 112 52 111 338 48
21 16 14 13 10 7 7 5 5 4 2 355 352 340 340 336 332 342 4 31 21 348 40 53 21 120 92 21 320 8 38 38 49 33 122 341 70 107 94 100 134 135 116 109 24 340 86
16 12 11 9 8 4 4 5 4 2 1 360 354 345 340 338 334 355 61 77 140 186 5 27 41 49 111 195 107 307 321 83 74 171 357 30 64 318 273 90 96 69 113 70 70 9 85
10 8 9 7 4 0 1 2 3 2 356 354 352 348 342 338 327 37 78 99 142 162 106 352 308 96 154 156 110 297 205 333 117 138 246 95 324 331 55 56 83 37 104 166 133 106 64
9 7 5 3 359 358 358 358 2 1 356 348 342 348 348 336 65 265 44 328 117 156 71 322 344 12 22 154 88 174 232 247 26 127 75 73 326 107 66 73 60 62 312 99 98 88 151
8 5 2 1 359 356 356 354 356 1 357 344 336 341 360 46 150 61 336 328 112 67 56 310 312 289 355 86 319 18 345 76 78 334 115 338 12 36 68 352 354 146 139 86 97 90 98
3 2 359 358 358 355 354 351 351 357 358 350 340 339 22 33 56 321 322 358 35 45 289 335 317 355 16 14 9 320 37 32 157 56 35 77 37 52 76 41 61 144 74 44 55 77 42
357 359 356 356 356 355 351 349 351 355 357 357 353 1 49 72 160 316 351 51 41 87 278 312 323 10 35 358 12 28 31 24 45 50 14 1 9 350 37 73 60 82 60 15 17 15 214
353 354 355 352 355 353 351 347 348 352 351 349 351 34 22 57 302 338 62 47 69 244 253 320 318 308 68 3 37 7 55 29 20 46 81 107 359 6 339 38 169 63 138 149 166 175 244
349 351 351 351 352 352 350 347 346 348 350 343 9 6 39 329 331 41 73 50 188 239 333 339 336 32 351 7 96 86 51 20 311 8 101 105 30 324 41 359 38 174 66 142 105 67 48
349 344 346 350 349 348 348 347 346 346 351 7 72 53 348 320 348 54 73 125 24 250 336 2 37 21 354 334 28 61 34 249 325 19 215 184 85 357 299 283 37 77 136 64 4 119 276
336 339 337 347 344 342 344 347 347 348 349 346 57 46 274 348 49 51 91 180 260 234 68 22 2 345 2 346 23 1 299 355 331 315 65 120 100 298 344 14 1 24 31 56 110 78 154
324 322 325 338 341 340 343 346 348 349 349 40 91 31 315 46 48 40 102 159 213 53 56 54 107 34 21 1 11 32 22 346 341 306 67 168 123 114 159 283 293 33 89 110 108 241 55
286 299 319 331 339 338 341 344 346 352 10 11 73 256 336 79 74 19 257 133 111 63 50 70 63 72 43 27 33 37 6 29 8 22 341 252 15 77 356 358 346 186 166 114 106 94 202
311 307 318 330 339 341 340 343 343 353 6 78 70 21 338 47 69 117 125 29 93 205 95 100 162 154 89 53 12 29 12 354 2 48 36 37 44 169 181 187 132 187 185 174 134 135 185
285 299 319 326 334 341 344 345 343 351 10 91 32 232 187 325 358 69 50 70 77 57 105 71 74 40 131 94 68 98 242 332 16 359 51 82 32 36 320 334 323 237 186 181 194 185 186
269 280 299 313 320 341 350 350 348 349 3 80 92 116 12 115 305 58 7 58 318 336 1 349 105 147 167 176 193 207 167 202 201 30 57 351 162 106 306 82 193 265 259 249 271 297 282
252 266 281 299 313 330 348 356 357 359 13 84 136 1 107 294 43 92 214 162 165 159 4 5 263 54 343 220 182 274 318 106 112 176 151 116 130 79 264 234 271 273 211 184 182 191 188
242 247 257 270 287 313 334 353 8 21 54 102 118 104 85 259 172 216 207 196 193 184 180 207 140 162 141 88 98 105 77 80 77 18 26 127 99 118 250 1 316 273 160 188 193 201 209
243 234 244 254 261 270 286 331 8 33 53 85 135 87 92 277 202 276 220 237 84 348 190 187 175 164 139 78 34 2 340 20 50 50 11 25 123 84 126 224 288 65 221 155 177 272 192
21 30 25 285 264 265 247 244 314 38 88 94 127 135 98 112 259 354 135 182 206 222 330 247 36 146 77 85 83 165 246 249 274 8 45 73 75 114 132 157 242 221 200 197 156 313 198
3 12 16 18 3 300 263 242 234 199 137 105 154 155 100 145 255 151 184 187 138 126 160 294 178 87 23 100 150 189 240 179 226 196 170 107 87 188 195 255 286 242 218 160 169 228 194
7 360 357 2 356 359 344 283 246 224 174 134 207 187 117 176 277 205 205 162 142 160 162 192 70 345 57 156 172 214 198 223 178 179 175 176 153 199 138 202 275 182 104 173 212 294 258
350 358 354 356 344 345 342 347 291 242 196 153 188 174 146 147 242 220 238 238 193 193 147 189 190 165 186 106 193 119 203 90 188 251 19 228 190 187 188 212 246 226 299 127 135 221 277